Regional Weather Roundup
Issued by NWS

Home | Current Version | Previous Version | Graphics & Text | Print | Product List | Glossary On
Versions: 1 2 3 4 5 6 7 8 9 10 11 12 13 14 15 16 17 18 19 20 21 22 23 24 25 26 27 28 29 30 31 32 33 34 35 36 37 38 39 40 41 42 43 44 45 46 47 48 49 50
000
ASUS43 KMKX 281411
RWRWI

WISCONSIN REGIONAL WEATHER ROUNDUP
NATIONAL WEATHER SERVICE MILWAUKEE/SULLIVAN WI
900 AM CDT SUN AUG 28 2016

NOTE: "FAIR" INDICATES FEW OR NO CLOUDS BELOW 12,000 FEET WITH NO
SIGNIFICANT WEATHER AND/OR OBSTRUCTIONS TO VISIBILITY.

WIZ001-002-006>008-014>016-023>028-281500-
NORTHWEST WISCONSIN

CITY           SKY/WX    TMP DP  RH WIND       PRES   REMARKS
SUPERIOR ARPT  CLOUDY    60  60  99 SW6       30.17R
ASHLAND        CLOUDY    62  61  96 CALM      30.18S FOG
HAYWARD        CLOUDY    62  59  90 S3        30.20R
SIREN          FOG       61  60  98 SE5       30.17F VSB 1/2
CUMBERLAND     FOG       59  57  94 CALM      30.20R VSB<1/4
RICE LAKE      FOG       60  59  96 E3        30.21R VSB 1/4
CHETEK         NOT AVBL
LADYSMITH      CLOUDY    63  62  97 CALM      30.22R
EAU CLAIRE     CLOUDY    65  63  93 S5        30.19R
MENOMONIE      CLOUDY    65  64  99 SE7       30.19R FOG
NEW RICHMOND   CLOUDY    63  63 100 CALM      30.17F
OSCEOLA        CLOUDY    61  61 100 CALM      30.20S
$$

WIZ003>005-009-010-017-018-281500-
NORTH CENTRAL WISCONSIN

CITY           SKY/WX    TMP DP  RH WIND       PRES   REMARKS
MANITOWISH WTR NOT AVBL
ARBOR VITAE    CLOUDY    63  60  88 W6        30.22R
WOODRUFF       CLOUDY    63  60  88 W6        30.22R
RHINELANDER    CLOUDY    64  61  90 W5        30.23R
EAGLE RIVER    CLOUDY    63  59  87 W5        30.21R
LAND O LAKES   PTSUNNY   64  59  84 NW3       30.21S
PHILLIPS       CLOUDY    62  59  89 CALM      30.20S
TOMAHAWK       CLOUDY    63  58  86 N5        30.22R
MEDFORD        CLOUDY    64  64 100 N5        30.21R
MERRILL        CLOUDY    65  62  91 CALM      30.22S
$$

WIZ029-030-035-036-043>047-281500-
CENTRAL WISCONSIN

CITY           SKY/WX    TMP DP  RH WIND       PRES   REMARKS
WAUSAU         PTSUNNY   65  59  81 NW6       30.20R
MOSINEE        MOSUNNY   63  63 100 CALM      30.22R
MARSHFIELD     PTSUNNY   67  61  81 SE3       30.20R
STEVENS POINT  CLOUDY    61  60  97 CALM      30.23R
WAUPACA        PTSUNNY   68  68  99 CALM      30.21R
WAUTOMA        MOSUNNY   68  65  90 CALM      30.22R
WISC RAPIDS    CLOUDY    68  64  87 SW3       30.23R
CAMP DOUGLAS   CLOUDY    68  66  94 E2        30.22R FOG
$$

WIZ011>013-019>022-031-037>040-048>050-281500-
NORTHEAST WISCONSIN

CITY           SKY/WX    TMP DP  RH WIND       PRES   REMARKS
ANTIGO         PTSUNNY   64  61  90 NW3       30.22R
SHAWANO        SUNNY     67  64  90 CALM      30.21R
OCONTO         NOT AVBL
STURGEON BAY   PTSUNNY   67  64  90 SW8       30.19S
GREEN BAY      CLOUDY    66  66 100 W5        30.20R
MANITOWOC      SUNNY     70  63  78 W3        30.21R
APPLETON       PTSUNNY   66  66 100 W5        30.20R
CLINTONVILLE   CLOUDY    63  63 100 W5        30.21R
OSHKOSH        SUNNY     70  63  78 W3        30.20S
$$

WIZ032>034-041-042-053>061-281500-
SOUTHWEST WISCONSIN

CITY           SKY/WX    TMP DP  RH WIND       PRES   REMARKS
LA CROSSE      CLOUDY    68  67  96 SE5       30.19R FOG
SPARTA         CLOUDY    65  65 100 CALM      30.22R
VIROQUA        CLOUDY    64  64 100 CALM      30.22R VSB<1/4
BOSCOBEL       FOG       65  64  97 N3        30.21R VSB 1/2
PRAIRIE DU CHI FOG       64  63  96 CALM      30.19S VSB 1/4
PLATTEVILLE    SUNNY     69  69 100 E7        30.22R
$$

WIZ056-057-062-063-064-067-068-281500-
SOUTH CENTRAL WISCONSIN

CITY           SKY/WX    TMP DP  RH WIND       PRES   REMARKS
REEDSBURG      NOT AVBL
BARABOO/DELLS  FOG       64  63  96 E3        30.22R VSB 1/2
LONE ROCK      FOG       64  64 100 E6        30.22R VSB 1/4
MINERAL POINT  SUNNY     70  70 100 SE3       30.23R
MADISON        FOG       64  64 100 NE5       30.22R VSB<1/4
MIDDLETON      CLOUDY    65  65 100 NE5       30.23R VSB<1/4
WATERTOWN      FOG       64  64 100 N5        30.23R VSB 1/4
MONROE         FOG       68  68 100 E3        30.22R VSB 3/4
JANESVILLE     MOSUNNY   72  70  94 CALM      30.21R
$$

WIZ051-052-058>065-066-070>072-281500-
SOUTHEAST WISCONSIN

CITY           SKY/WX    TMP DP  RH WIND       PRES   REMARKS
MILWAUKEE      FOG       67  63  87 NE12      30.22R VSB 1/2
WAUKESHA       FOG       64  64 100 CALM      30.23R VSB 1
MILWAUKEE/TIMM CLOUDY    64  63  94 N6        30.23R FOG
RACINE         CLOUDY    73  67  81 NE3       30.23R
BURLINGTON     MOSUNNY   68  67  99 CALM      30.22R
KENOSHA        CLOUDY    72  68  87 E3        30.22R
FOND DU LAC    SUNNY     68  65  90 S6        30.21S
SHEBOYGAN      SUNNY     70  63  78 NW3       30.21R
WEST BEND      CLOUDY    63  63 100 NE5       30.23R
JUNEAU         CLOUDY    63  63  99 NE6       30.24R FOG
$$

LSZ147-162-281500-
LAKE SUPERIOR

STATION/POSITION TIME  TEMP    WIND        PRES    WAVE
                       AIR SEA DIR/SP/G            HT/PER
                 (UTC) (F)     (DEG/KT/KT) (MB)    (FT/S)
W MID LAKE BUOY  1350   65 67  230/ 10/ 12 1021.0R   1/ 3
DEVILS ISLAND    1400   64     220/ 10/ 11 1021.8R
PORT WING        1340   63      CALM  /  2 1021.7R
SAXON HARBOR     1340   64     100/  2/  4 1021.7R
$$

LMZ867-665-643>646-281500-
LAKE MICHIGAN

STATION/POSITION TIME  TEMP    WIND        PRES    WAVE
                       AIR SEA DIR/SP/G            HT/PER
                 (UTC) (F)     (DEG/KT/KT) (MB)    (FT/S)
CHAMBERS ISLAND  1300   68     210/  5/  9 1021.7R
S GREEN BAY BUOY 1300   67 71  250/ 10/ 10 1021.5R
N MID LAKE BUOY  1350   67 70  250/ 10/ 12 1020.8R   1/ 3
NORTHPORT PIER   1300   69     280/  6/ 10 1021.3R
SISTER BAY       1322   73     300/ 12/ 13   N/A
KEWAUNEE LAKESHO 1300   66     280/  3/  5 1021.6R
SHEBOYGAN LAKESH 1400   69     130/  1/  1 1022.5R
PORT WASHINGTON  1330   66      50/  1/  6 1023.7R
ATWATER BUOY     1400   64      20/ 10/ 14   N/A
MILWAUKEE LAKESH 1310   69        CALM       N/A
S MID LAKE BUOY  1350   73 74   80/  4/  4 1022.1R   1
KENOSHA   LAKESH 1400   68        CALM     1023.0R
$$

TC  - TEMPERATURE IN CELSIUS
VSB - VISIBILITY IN STATUTE MILES
WCI - WIND CHILL INDEX
HX  - HEAT INDEX




USA.gov is the U.S. government's official web portal to all federal, state and local government web resources and services.